Terminal Aerodrome Forecast
Issued by NWS

Home | Current Version | Previous Version | Text Only | Print | Product List | Glossary On
Versions: 1 2 3 4 5 6 7 8 9 10 11 12 13 14 15 16 17 18 19 20 21 22 23 24 25 26 27 28 29 30 31
000
FTUS43 KPAH 292021 AAA
TAFOWB
TAF AMD
KOWB 292021Z 2920/3018 30006KT P6SM VCTS SCT035CB BKN100
      TEMPO 2921/2923 35008G22KT 4SM -TSRA BR BKN025CB OVC050
     FM292330 36010KT P6SM SCT025
     FM300300 35004KT P6SM SCT100=

USA.gov is the U.S. government's official web portal to all federal, state and local government web resources and services.